| time (UTC) | temp C | wind direction | speed KPH | gust KPH | rain 1hr cm | rain 24hr cm | rain mn cm | humidity % | barometer mb |
| 20260510104503 | 14 | 288 | 0.0 | 9.7 | 0.00 | 0.00 | 0.00 | 30 | 1017.9 |
| 20260510103603 | 14 | 290 | 0.0 | 4.8 | 0.00 | 0.00 | 0.00 | 29 | 1017.9 |
| 20260510102703 | 14 | 290 | 1.6 | 11.3 | 0.00 | 0.00 | 0.00 | 30 | 1017.9 |
| 20260510101803 | 14 | 286 | 0.0 | 4.8 | 0.00 | 0.00 | 0.00 | 30 | 1017.9 |
| 20260510100903 | 14 | 286 | 0.0 | 6.4 | 0.00 | 0.00 | 0.00 | 29 | 1017.9 |
| 20260510100003 | 14 | 286 | 0.0 | 6.4 | 0.00 | 0.00 | 0.00 | 29 | 1017.9 |
| 20260510095424 | 14 | 290 | 0.0 | 6.4 | 0.00 | 0.00 | 0.00 | 30 | 1017.9 |
| 20260510094524 | 14 | 11 | 0.0 | 6.4 | 0.00 | 0.00 | 0.00 | 30 | 1017.9 |
| 20260510093603 | 14 | 0 | 0.0 | 0.0 | 0.00 | 0.00 | 0.00 | 31 | 1017.9 |
| 20260510092703 | 13 | 0 | 0.0 | 0.0 | 0.00 | 0.00 | 0.00 | 32 | 1017.9 |
| 20260510091803 | 13 | 0 | 0.0 | 0.0 | 0.00 | 0.00 | 0.00 | 32 | 1017.9 |
| 20260510090903 | 13 | 0 | 0.0 | 0.0 | 0.00 | 0.00 | 0.00 | 33 | 1017.9 |
| 20260510090003 | 13 | 0 | 0.0 | 0.0 | 0.00 | 0.00 | 0.00 | 33 | 1017.9 |
| 20260510085403 | 13 | 0 | 0.0 | 0.0 | 0.00 | 0.00 | 0.00 | 34 | 1017.9 |
| 20260510084524 | 13 | 0 | 0.0 | 0.0 | 0.00 | 0.00 | 0.00 | 35 | 1017.9 |
| 20260510083603 | 12 | 0 | 0.0 | 0.0 | 0.00 | 0.00 | 0.00 | 35 | 1017.9 |
| 20260510082703 | 12 | 0 | 0.0 | 0.0 | 0.00 | 0.00 | 0.00 | 35 | 1017.9 |
| 20260510081803 | 12 | 0 | 0.0 | 0.0 | 0.00 | 0.00 | 0.00 | 35 | 1017.9 |
| 20260510080903 | 12 | 0 | 0.0 | 0.0 | 0.00 | 0.00 | 0.00 | 34 | 1017.9 |
| 20260510080003 | 13 | 0 | 0.0 | 0.0 | 0.00 | 0.00 | 0.00 | 34 | 1017.9 |
| 20260510075424 | 13 | 0 | 0.0 | 0.0 | 0.00 | 0.00 | 0.00 | 34 | 1017.9 |
| 20260510074503 | 13 | 0 | 0.0 | 0.0 | 0.00 | 0.00 | 0.00 | 32 | 1017.9 |
| 20260510073603 | 13 | 0 | 0.0 | 0.0 | 0.00 | 0.00 | 0.00 | 32 | 1017.9 |
| 20260510072703 | 13 | 0 | 0.0 | 0.0 | 0.00 | 0.00 | 0.00 | 32 | 1017.9 |
| 20260510071803 | 14 | 11 | 0.0 | 3.2 | 0.00 | 0.00 | 0.00 | 31 | 1017.9 |
| 20260510070903 | 14 | 0 | 0.0 | 0.0 | 0.00 | 0.00 | 0.00 | 30 | 1017.9 |
| 20260510070003 | 15 | 0 | 0.0 | 0.0 | 0.00 | 0.00 | 0.00 | 29 | 1017.9 |
| 20260510065403 | 15 | 0 | 0.0 | 0.0 | 0.00 | 0.00 | 0.00 | 28 | 1017.9 |
| 20260510064503 | 15 | 0 | 0.0 | 0.0 | 0.00 | 0.00 | 0.00 | 28 | 1017.9 |
| 20260510063603 | 15 | 0 | 0.0 | 0.0 | 0.00 | 0.00 | 0.00 | 27 | 1017.9 |
| 20260510062703 | 16 | 0 | 0.0 | 0.0 | 0.00 | 0.00 | 0.00 | 24 | 1017.9 |
| 20260510061803 | 16 | 0 | 0.0 | 0.0 | 0.00 | 0.00 | 0.00 | 24 | 1017.9 |
| 20260510060903 | 17 | 11 | 0.0 | 3.2 | 0.00 | 0.00 | 0.00 | 21 | 1017.9 |
| 20260510060024 | 17 | 11 | 0.0 | 3.2 | 0.00 | 0.00 | 0.00 | 19 | 1017.9 |
| 20260510055403 | 17 | 0 | 0.0 | 0.0 | 0.00 | 0.00 | 0.00 | 17 | 1017.9 |
| 20260510054503 | 17 | 0 | 0.0 | 0.0 | 0.00 | 0.00 | 0.00 | 15 | 1017.9 |
| 20260510053624 | 18 | 0 | 0.0 | 0.0 | 0.00 | 0.00 | 0.00 | 13 | 1017.9 |
| 20260510052703 | 19 | 15 | 1.6 | 17.7 | 0.00 | 0.00 | 0.00 | 11 | 1017.9 |
| 20260510051803 | 20 | 303 | 1.6 | 9.7 | 0.00 | 0.00 | 0.00 | 9 | 1017.9 |
| 20260510050903 | 21 | 286 | 3.2 | 19.3 | 0.00 | 0.00 | 0.00 | 8 | 1017.9 |
| 20260510050003 | 21 | 302 | 3.2 | 17.7 | 0.00 | 0.00 | 0.00 | 8 | 1017.9 |
| 20260510045403 | 21 | 305 | 1.6 | 12.9 | 0.00 | 0.00 | 0.00 | 8 | 1017.9 |
| 20260510044503 | 21 | 299 | 0.0 | 11.3 | 0.00 | 0.00 | 0.00 | 8 | 1017.9 |
| 20260510043624 | 21 | 263 | 0.0 | 8.0 | 0.00 | 0.00 | 0.00 | 7 | 1017.9 |
| 20260510042703 | 21 | 291 | 3.2 | 19.3 | 0.00 | 0.00 | 0.00 | 7 | 1017.9 |
| 20260510041824 | 21 | 277 | 3.2 | 19.3 | 0.00 | 0.00 | 0.00 | 6 | 1017.9 |
| 20260510040924 | 22 | 288 | 3.2 | 17.7 | 0.00 | 0.00 | 0.00 | 6 | 1017.9 |
| 20260510040003 | 22 | 296 | 1.6 | 9.7 | 0.00 | 0.00 | 0.00 | 6 | 1017.9 |
| 20260510035403 | 22 | 276 | 1.6 | 20.9 | 0.00 | 0.00 | 0.00 | 6 | 1017.9 |
| 20260510034503 | 22 | 291 | 1.6 | 14.5 | 0.00 | 0.00 | 0.00 | 5 | 1017.9 |
| 20260510033603 | 22 | 298 | 3.2 | 24.1 | 0.00 | 0.00 | 0.00 | 5 | 1017.9 |
| 20260510032724 | 22 | 282 | 4.8 | 22.5 | 0.00 | 0.00 | 0.00 | 5 | 1017.9 |
| 20260510031803 | 22 | 301 | 1.6 | 14.5 | 0.00 | 0.00 | 0.00 | 4 | 1017.9 |
| 20260510030903 | 22 | 298 | 3.2 | 16.1 | 0.00 | 0.00 | 0.00 | 4 | 1017.9 |
| 20260510030003 | 23 | 289 | 3.2 | 22.5 | 0.00 | 0.00 | 0.00 | 5 | 1017.9 |
| 20260510025403 | 23 | 305 | 3.2 | 22.5 | 0.00 | 0.00 | 0.00 | 5 | 1017.9 |
| 20260510024503 | 23 | 300 | 3.2 | 19.3 | 0.00 | 0.00 | 0.00 | 5 | 1017.9 |
| 20260510023603 | 23 | 294 | 1.6 | 14.5 | 0.00 | 0.00 | 0.00 | 6 | 1017.9 |
| 20260510022703 | 23 | 303 | 3.2 | 14.5 | 0.00 | 0.00 | 0.00 | 6 | 1017.9 |
| 20260510021824 | 24 | 301 | 3.2 | 20.9 | 0.00 | 0.00 | 0.00 | 6 | 1017.9 |
| 20260510020903 | 24 | 275 | 1.6 | 20.9 | 0.00 | 0.00 | 0.00 | 5 | 1017.9 |
| 20260510020003 | 24 | 23 | 0.0 | 4.8 | 0.00 | 0.00 | 0.00 | 5 | 1017.9 |
| 20260510015403 | 24 | 23 | 0.0 | 4.8 | 0.00 | 0.00 | 0.00 | 4 | 1017.9 |
| 20260510014503 | 24 | 23 | 0.0 | 4.8 | 0.00 | 0.00 | 0.00 | 4 | 1017.9 |
| 20260510013624 | 24 | 0 | 0.0 | 3.2 | 0.00 | 0.00 | 0.00 | 5 | 1017.9 |
| 20260510012703 | 25 | 24 | 1.6 | 9.7 | 0.00 | 0.00 | 0.00 | 5 | 1017.9 |
| 20260510011803 | 25 | 26 | 0.0 | 6.4 | 0.00 | 0.00 | 0.00 | 6 | 1017.9 |
| 20260510010924 | 25 | 26 | 0.0 | 4.8 | 0.00 | 0.00 | 0.00 | 7 | 1017.9 |
| 20260510010003 | 25 | 0 | 0.0 | 0.0 | 0.00 | 0.00 | 0.00 | 8 | 1017.9 |
| 20260510005403 | 25 | 0 | 0.0 | 0.0 | 0.00 | 0.00 | 0.00 | 7 | 1017.9 |
| 20260510004503 | 25 | 21 | 0.0 | 4.8 | 0.00 | 0.00 | 0.00 | 7 | 1017.9 |
| 20260510003603 | 26 | 13 | 1.6 | 12.9 | 0.00 | 0.00 | 0.00 | 7 | 1017.9 |
| 20260510002703 | 26 | 22 | 3.2 | 12.9 | 0.00 | 0.00 | 0.00 | 6 | 1017.9 |
| 20260510001803 | 27 | 10 | 3.2 | 14.5 | 0.00 | 0.00 | 0.00 | 7 | 1017.9 |
| 20260510000924 | 27 | 19 | 6.4 | 19.3 | 0.00 | 0.00 | 0.00 | 5 | 1017.9 |
| 20260510000003 | 27 | 11 | 6.4 | 22.5 | 0.00 | 0.00 | 0.00 | 6 | 1017.9 |
| 20260509235403 | 27 | 18 | 4.8 | 14.5 | 0.00 | 0.00 | 0.00 | 6 | 1017.9 |
| 20260509234503 | 27 | 19 | 1.6 | 16.1 | 0.00 | 0.00 | 0.00 | 6 | 1017.9 |
| 20260509233603 | 27 | 9 | 3.2 | 16.1 | 0.00 | 0.00 | 0.00 | 5 | 1017.9 |
| 20260509232703 | 28 | 343 | 3.2 | 14.5 | 0.00 | 0.00 | 0.00 | 4 | 1017.9 |
| 20260509231803 | 28 | 355 | 1.6 | 17.7 | 0.00 | 0.00 | 0.00 | 5 | 1017.9 |
| 20260509230903 | 28 | 360 | 4.8 | 17.7 | 0.00 | 0.00 | 0.00 | 5 | 1017.9 |
| 20260509230003 | 28 | 345 | 3.2 | 17.7 | 0.00 | 0.00 | 0.00 | 4 | 1017.9 |
| 20260509225403 | 28 | 304 | 3.2 | 17.7 | 0.00 | 0.00 | 0.00 | 5 | 1017.9 |
| 20260509224503 | 28 | 221 | 4.8 | 20.9 | 0.00 | 0.00 | 0.00 | 4 | 1017.9 |
| 20260509223603 | 28 | 262 | 3.2 | 16.1 | 0.00 | 0.00 | 0.00 | 4 | 1017.9 |
| 20260509222703 | 28 | 210 | 3.2 | 20.9 | 0.00 | 0.00 | 0.00 | 6 | 1017.9 |
| 20260509221803 | 28 | 266 | 1.6 | 14.5 | 0.00 | 0.00 | 0.00 | 6 | 1017.9 |
| 20260509220903 | 28 | 206 | 4.8 | 30.6 | 0.00 | 0.00 | 0.00 | 6 | 1017.9 |
| 20260509220003 | 29 | 308 | 1.6 | 16.1 | 0.00 | 0.00 | 0.00 | 6 | 1017.9 |
| 20260509215403 | 28 | 338 | 4.8 | 24.1 | 0.00 | 0.00 | 0.00 | 7 | 1017.9 |
| 20260509214503 | 28 | 337 | 4.8 | 19.3 | 0.00 | 0.00 | 0.00 | 6 | 1017.9 |
| 20260509213603 | 28 | 323 | 4.8 | 24.1 | 0.00 | 0.00 | 0.00 | 7 | 1017.9 |
| 20260509212703 | 27 | 293 | 4.8 | 17.7 | 0.00 | 0.00 | 0.00 | 7 | 1017.9 |
| 20260509211824 | 28 | 317 | 4.8 | 20.9 | 0.00 | 0.00 | 0.00 | 8 | 1017.9 |
| 20260509210903 | 28 | 2 | 9.7 | 29.0 | 0.00 | 0.00 | 0.00 | 8 | 1017.9 |
| 20260509210024 | 28 | 354 | 4.8 | 14.5 | 0.00 | 0.00 | 0.00 | 8 | 1017.9 |
| 20260509205403 | 28 | 332 | 3.2 | 16.1 | 0.00 | 0.00 | 0.00 | 8 | 1017.9 |
| 20260509204503 | 28 | 307 | 4.8 | 17.7 | 0.00 | 0.00 | 0.00 | 9 | 1017.9 |
| 20260509202703 | 27 | 333 | 6.4 | 22.5 | 0.00 | 0.00 | 0.00 | 9 | 1017.9 |
| 20260509201803 | 28 | 324 | 8.0 | 29.0 | 0.00 | 0.00 | 0.00 | 8 | 1017.9 |
| 20260509200903 | 28 | 2 | 4.8 | 17.7 | 0.00 | 0.00 | 0.00 | 10 | 1017.9 |
| 20260509200024 | 28 | 308 | 3.2 | 16.1 | 0.00 | 0.00 | 0.00 | 10 | 1017.9 |
| 20260509195403 | 27 | 298 | 6.4 | 17.7 | 0.00 | 0.00 | 0.00 | 10 | 1017.9 |
| 20260509194503 | 28 | 356 | 4.8 | 22.5 | 0.00 | 0.00 | 0.00 | 10 | 1017.9 |
| 20260509193603 | 28 | 356 | 4.8 | 19.3 | 0.00 | 0.00 | 0.00 | 9 | 1017.9 |
| 20260509192703 | 28 | 333 | 8.0 | 22.5 | 0.00 | 0.00 | 0.00 | 9 | 1017.9 |
| 20260509191803 | 28 | 346 | 6.4 | 22.5 | 0.00 | 0.00 | 0.00 | 10 | 1017.9 |
| 20260509190903 | 27 | 304 | 3.2 | 14.5 | 0.00 | 0.00 | 0.00 | 10 | 1017.9 |
| 20260509190003 | 28 | 12 | 6.4 | 17.7 | 0.00 | 0.00 | 0.00 | 10 | 1017.9 |
| 20260509185403 | 28 | 26 | 6.4 | 17.7 | 0.00 | 0.00 | 0.00 | 12 | 1017.9 |
| 20260509184503 | 27 | 25 | 4.8 | 19.3 | 0.00 | 0.00 | 0.00 | 13 | 1017.9 |
| 20260509183603 | 27 | 20 | 8.0 | 19.3 | 0.00 | 0.00 | 0.00 | 13 | 1017.9 |
| 20260509182703 | 27 | 13 | 8.0 | 17.7 | 0.00 | 0.00 | 0.00 | 15 | 1017.9 |
| 20260509181803 | 27 | 12 | 11.3 | 22.5 | 0.00 | 0.00 | 0.00 | 14 | 1017.9 |
| 20260509180903 | 26 | 9 | 11.3 | 20.9 | 0.00 | 0.00 | 0.00 | 15 | 1017.9 |
| 20260509180003 | 26 | 9 | 8.0 | 19.3 | 0.00 | 0.00 | 0.00 | 15 | 1017.9 |
| 20260509175403 | 26 | 8 | 8.0 | 20.9 | 0.00 | 0.00 | 0.00 | 15 | 1017.9 |
| 20260509174503 | 26 | 15 | 9.7 | 19.3 | 0.00 | 0.00 | 0.00 | 15 | 1017.9 |
| 20260509173603 | 25 | 28 | 9.7 | 20.9 | 0.00 | 0.00 | 0.00 | 15 | 1017.9 |
| 20260509172703 | 25 | 41 | 8.0 | 17.7 | 0.00 | 0.00 | 0.00 | 15 | 1017.9 |
| 20260509171803 | 25 | 18 | 3.2 | 14.5 | 0.00 | 0.00 | 0.00 | 15 | 1017.9 |
| 20260509170903 | 24 | 61 | 1.6 | 6.4 | 0.00 | 0.00 | 0.00 | 17 | 1017.9 |
| 20260509170003 | 23 | 67 | 4.8 | 12.9 | 0.00 | 0.00 | 0.00 | 18 | 1017.9 |
| 20260509165403 | 23 | 71 | 3.2 | 14.5 | 0.00 | 0.00 | 0.00 | 19 | 1017.9 |
| 20260509164503 | 22 | 73 | 1.6 | 8.0 | 0.00 | 0.00 | 0.00 | 20 | 1017.9 |
| 20260509163603 | 22 | 65 | 1.6 | 6.4 | 0.00 | 0.00 | 0.00 | 20 | 1017.9 |
| 20260509162703 | 22 | 61 | 1.6 | 8.0 | 0.00 | 0.00 | 0.00 | 21 | 1017.9 |
| 20260509161803 | 22 | 59 | 4.8 | 14.5 | 0.00 | 0.00 | 0.00 | 23 | 1017.9 |
| 20260509160903 | 22 | 64 | 3.2 | 14.5 | 0.00 | 0.00 | 0.00 | 23 | 1017.9 |
| 20260509160003 | 21 | 65 | 1.6 | 8.0 | 0.00 | 0.00 | 0.00 | 23 | 1017.9 |
| 20260509155403 | 20 | 65 | 0.0 | 1.6 | 0.00 | 0.00 | 0.00 | 25 | 1017.9 |
| 20260509154503 | 20 | 65 | 1.6 | 6.4 | 0.00 | 0.00 | 0.00 | 24 | 1017.9 |
| 20260509153603 | 20 | 65 | 1.6 | 8.0 | 0.00 | 0.00 | 0.00 | 26 | 1017.9 |
| 20260509152724 | 20 | 65 | 1.6 | 8.0 | 0.00 | 0.00 | 0.00 | 25 | 1017.9 |
| 20260509151803 | 20 | 65 | 1.6 | 8.0 | 0.00 | 0.00 | 0.00 | 26 | 1017.9 |
| 20260509150903 | 19 | 65 | 1.6 | 8.0 | 0.00 | 0.00 | 0.00 | 27 | 1017.9 |
| 20260509150003 | 18 | 53 | 3.2 | 9.7 | 0.00 | 0.00 | 0.00 | 28 | 1017.9 |
| 20260509145424 | 18 | 43 | 3.2 | 9.7 | 0.00 | 0.00 | 0.00 | 29 | 1017.9 |
| 20260509144503 | 17 | 27 | 0.0 | 4.8 | 0.00 | 0.00 | 0.00 | 31 | 1017.9 |
| 20260509143603 | 16 | 27 | 0.0 | 4.8 | 0.00 | 0.00 | 0.00 | 31 | 1017.9 |
| 20260509142703 | 15 | 0 | 0.0 | 0.0 | 0.00 | 0.00 | 0.00 | 35 | 1017.9 |
| 20260509141803 | 15 | 0 | 0.0 | 0.0 | 0.00 | 0.00 | 0.00 | 36 | 1017.9 |
| 20260509140903 | 15 | 0 | 0.0 | 0.0 | 0.00 | 0.00 | 0.00 | 35 | 1017.9 |
| 20260509140015 | 14 | 0 | 0.0 | 0.0 | 0.00 | 0.00 | 0.00 | 37 | 1017.9 |
| 20260509135436 | 14 | 0 | 0.0 | 0.0 | 0.00 | 0.00 | 0.00 | 36 | 1017.9 |
| 20260509134515 | 14 | 0 | 0.0 | 0.0 | 0.00 | 0.00 | 0.00 | 39 | 1017.9 |
| 20260509133615 | 15 | 0 | 0.0 | 0.0 | 0.00 | 0.00 | 0.00 | 39 | 1017.9 |
| 20260509132715 | 15 | 0 | 0.0 | 0.0 | 0.00 | 0.00 | 0.00 | 38 | 1017.9 |
| 20260509131815 | 15 | 27 | 0.0 | 4.8 | 0.00 | 0.00 | 0.00 | 39 | 1017.9 |
| 20260509130915 | 15 | 27 | 1.6 | 4.8 | 0.00 | 0.00 | 0.00 | 35 | 1017.9 |
| 20260509130003 | 13 | 0 | 0.0 | 0.0 | 0.00 | 0.00 | 0.00 | 34 | 1017.9 |
| 20260509125415 | 13 | 0 | 0.0 | 1.6 | 0.00 | 0.00 | 0.00 | 35 | 1017.9 |
| 20260509124536 | 13 | 0 | 0.0 | 1.6 | 0.00 | 0.00 | 0.00 | 36 | 1017.9 |
| 20260509123615 | 12 | 0 | 0.0 | 0.0 | 0.00 | 0.00 | 0.00 | 37 | 1017.9 |
| 20260509122703 | 12 | 0 | 0.0 | 0.0 | 0.00 | 0.00 | 0.00 | 37 | 1017.9 |
| 20260509121836 | 12 | 27 | 0.0 | 6.4 | 0.00 | 0.00 | 0.00 | 36 | 1017.9 |
| 20260509120915 | 12 | 27 | 0.0 | 6.4 | 0.00 | 0.00 | 0.00 | 37 | 1017.9 |
| 20260509120003 | 12 | 27 | 0.0 | 4.8 | 0.00 | 0.00 | 0.00 | 38 | 1017.9 |
| 20260509115415 | 12 | 21 | 0.0 | 9.7 | 0.00 | 0.00 | 0.00 | 38 | 1017.9 |
| 20260509114515 | 12 | 21 | 3.2 | 12.9 | 0.00 | 0.00 | 0.00 | 38 | 1017.9 |
| 20260509113615 | 13 | 25 | 0.0 | 8.0 | 0.00 | 0.00 | 0.00 | 32 | 1017.9 |
| 20260509112715 | 14 | 0 | 0.0 | 0.0 | 0.00 | 0.00 | 0.00 | 30 | 1017.9 |
| 20260509111815 | 15 | 244 | 0.0 | 3.2 | 0.00 | 0.00 | 0.00 | 29 | 1017.9 |
| 20260509110903 | 15 | 244 | 1.6 | 11.3 | 0.00 | 0.00 | 0.00 | 29 | 1017.9 |
| 20260509110015 | 14 | 245 | 3.2 | 8.0 | 0.00 | 0.00 | 0.00 | 30 | 1017.9 |
| 20260509105436 | 13 | 246 | 3.2 | 8.0 | 0.00 | 0.00 | 0.00 | 31 | 1017.9 |